Location: �terpigny
(49.8910°N, 2.9249°E)
Time: 12:53:12
(UTC+00:00)

CZ-2C R/B - Pass Details

Date: 24 October 2021
Orbit: 784 x 871 km, 98.2° (Epoch: 05 December)

Event Time Altitude Azimuth Distance (km) Brightness Sun altitude
Rises 18:38:39 0° 11° (NNE) 3,470 5.8 -19.8°
Reaches altitude 10° 18:41:04 10° 9° (N) 2,524 5.1 -20.2°
Maximum altitude 18:46:36 62° 290° (WNW) 964 3.2 -21.1°
Drops below altitude 10° 18:52:01 10° 211° (SSW) 2,467 5.4 -21.9°
Sets 18:54:22 0° 208° (SSW) 3,386 6.1 -22.3°
